Year,Month,Day,Hour,Minute,Value (Times are PST for temperature in C)
2011,04,26,10,49,10.70
2011,04,26,10,50,10.70
2011,04,26,10,51,10.70
2011,04,26,10,52,10.70
2011,04,26,10,53,10.80
2011,04,26,10,54,10.80
2011,04,26,10,55,10.90
2011,04,26,10,56,11.10
2011,04,26,10,57,11.20
2011,04,26,10,58,11.10
2011,04,26,10,59,11.10
2011,04,26,11,00,11.00
2011,04,26,11,01,10.90
2011,04,26,11,02,11.00
2011,04,26,11,03,11.00
2011,04,26,11,04,11.10
2011,04,26,11,05,11.20
2011,04,26,11,06,11.10
2011,04,26,11,07,11.10
2011,04,26,11,08,11.10
2011,04,26,11,09,11.00
2011,04,26,11,10,11.00
2011,04,26,11,11,11.00
2011,04,26,11,12,10.90
2011,04,26,11,13,11.00
2011,04,26,11,14,11.00
2011,04,26,11,15,11.10
2011,04,26,11,16,11.10
2011,04,26,11,17,11.10
2011,04,26,11,18,11.20
2011,04,26,11,19,11.30
2011,04,26,11,20,11.30
2011,04,26,11,21,11.30
2011,04,26,11,22,11.20
2011,04,26,11,23,11.20
2011,04,26,11,24,11.20
2011,04,26,11,25,11.30
2011,04,26,11,26,11.30
2011,04,26,11,27,11.50
2011,04,26,11,28,11.60
2011,04,26,11,29,11.60
2011,04,26,11,30,11.60
2011,04,26,11,31,11.60
2011,04,26,11,32,11.60
2011,04,26,11,33,11.60
2011,04,26,11,34,11.70
2011,04,26,11,35,11.70
2011,04,26,11,36,11.70
2011,04,26,11,37,11.60
2011,04,26,11,38,11.60
2011,04,26,11,39,11.60
2011,04,26,11,40,11.70
2011,04,26,11,41,11.70
2011,04,26,11,42,11.80
2011,04,26,11,43,11.80
2011,04,26,11,44,11.80
2011,04,26,11,45,11.90
2011,04,26,11,46,11.90
2011,04,26,11,47,11.90
2011,04,26,11,48,11.90
2011,04,26,11,49,11.90
2011,04,26,11,50,11.90
2011,04,26,11,51,11.90
2011,04,26,11,52,11.80
2011,04,26,11,53,11.70
2011,04,26,11,54,11.70
2011,04,26,11,55,11.70
2011,04,26,11,56,11.70
2011,04,26,11,57,11.80
2011,04,26,11,58,11.80
2011,04,26,11,59,11.80
2011,04,26,12,00,11.70
2011,04,26,12,01,11.70
2011,04,26,12,02,11.70
2011,04,26,12,03,11.80
2011,04,26,12,04,11.90
2011,04,26,12,05,12.00
2011,04,26,12,06,12.10
2011,04,26,12,07,12.10
2011,04,26,12,08,12.10
2011,04,26,12,09,12.10
2011,04,26,12,10,12.10
2011,04,26,12,11,12.10
2011,04,26,12,12,12.10
2011,04,26,12,13,12.00
2011,04,26,12,14,12.00
2011,04,26,12,15,12.00
2011,04,26,12,16,12.00
2011,04,26,12,17,12.00
2011,04,26,12,18,11.90
2011,04,26,12,19,12.00
2011,04,26,12,20,12.10
2011,04,26,12,21,12.10
2011,04,26,12,22,12.20
2011,04,26,12,23,12.10
2011,04,26,12,24,12.10
2011,04,26,12,25,12.00
2011,04,26,12,26,12.00
2011,04,26,12,27,11.90
2011,04,26,12,28,11.80
2011,04,26,12,29,11.80
2011,04,26,12,30,11.90
2011,04,26,12,31,11.80
2011,04,26,12,32,11.90
2011,04,26,12,33,11.90
2011,04,26,12,34,11.90
2011,04,26,12,35,11.90
2011,04,26,12,36,11.90
2011,04,26,12,37,11.90
2011,04,26,12,38,12.00
2011,04,26,12,39,11.90
2011,04,26,12,40,11.90
2011,04,26,12,41,11.90
2011,04,26,12,42,11.80
2011,04,26,12,43,11.80
2011,04,26,12,44,11.80
2011,04,26,12,45,11.70
2011,04,26,12,46,11.60
2011,04,26,12,47,11.60
2011,04,26,12,48,11.60
2011,04,26,12,49,11.60
2011,04,26,12,50,11.70
2011,04,26,12,51,11.80
2011,04,26,12,52,11.80
2011,04,26,12,53,11.90
2011,04,26,12,54,11.90
2011,04,26,12,55,11.90
2011,04,26,12,56,11.90
2011,04,26,12,57,11.90
2011,04,26,12,58,11.90
2011,04,26,12,59,11.90
2011,04,26,13,00,11.90
2011,04,26,13,01,11.90
2011,04,26,13,02,11.90
2011,04,26,13,03,11.80
2011,04,26,13,04,11.80
2011,04,26,13,05,11.80
2011,04,26,13,06,11.80
2011,04,26,13,07,11.80
2011,04,26,13,08,11.80
2011,04,26,13,09,11.90
2011,04,26,13,10,11.90
2011,04,26,13,11,11.90
2011,04,26,13,12,11.90
2011,04,26,13,13,11.90
2011,04,26,13,14,11.80
2011,04,26,13,15,11.80
2011,04,26,13,16,11.80
2011,04,26,13,17,11.80
2011,04,26,13,18,11.80
2011,04,26,13,19,11.90
2011,04,26,13,20,11.90
2011,04,26,13,21,11.90
2011,04,26,13,22,12.00
2011,04,26,13,23,12.10
2011,04,26,13,24,12.20
2011,04,26,13,25,12.20
2011,04,26,13,26,12.10
2011,04,26,13,27,12.00
2011,04,26,13,28,11.90
2011,04,26,13,29,11.80
2011,04,26,13,30,11.80
2011,04,26,13,31,11.80
2011,04,26,13,32,11.70
2011,04,26,13,33,11.70
2011,04,26,13,34,11.70
2011,04,26,13,35,11.70
2011,04,26,13,36,11.70
2011,04,26,13,37,11.70
2011,04,26,13,38,11.70
2011,04,26,13,39,11.80
2011,04,26,13,40,11.80
2011,04,26,13,41,11.90
2011,04,26,13,42,12.00
2011,04,26,13,43,12.00
2011,04,26,13,44,11.90
2011,04,26,13,45,11.90
2011,04,26,13,46,11.90
2011,04,26,13,47,11.90
2011,04,26,13,48,11.90
2011,04,26,13,49,11.90
2011,04,26,13,50,12.00
2011,04,26,13,51,12.00
2011,04,26,13,52,12.00
2011,04,26,13,53,12.00
2011,04,26,13,54,12.00
2011,04,26,13,55,12.00
2011,04,26,13,56,12.10
2011,04,26,13,57,12.10
2011,04,26,13,58,12.20
2011,04,26,13,59,12.30
2011,04,26,14,00,12.30
2011,04,26,14,01,12.30
2011,04,26,14,02,12.20
2011,04,26,14,03,12.20
2011,04,26,14,04,12.20
2011,04,26,14,05,12.20
2011,04,26,14,06,12.20
2011,04,26,14,07,12.20
2011,04,26,14,08,12.10
2011,04,26,14,09,12.10
2011,04,26,14,10,12.00
2011,04,26,14,11,12.00
2011,04,26,14,12,12.10
2011,04,26,14,13,12.20
2011,04,26,14,14,12.30
2011,04,26,14,15,12.30
2011,04,26,14,16,12.30
2011,04,26,14,17,12.30
2011,04,26,14,18,12.30
2011,04,26,14,19,12.30
2011,04,26,14,20,12.30
2011,04,26,14,21,12.30
2011,04,26,14,22,12.30
2011,04,26,14,23,12.20
2011,04,26,14,24,12.30
2011,04,26,14,25,12.40
2011,04,26,14,26,12.50
2011,04,26,14,27,12.50
2011,04,26,14,28,12.50
2011,04,26,14,29,12.50
2011,04,26,14,30,12.40
2011,04,26,14,31,12.40
2011,04,26,14,32,12.40
2011,04,26,14,33,12.50
2011,04,26,14,34,12.50
2011,04,26,14,35,12.40
2011,04,26,14,36,12.40
2011,04,26,14,37,12.30
2011,04,26,14,38,12.20
2011,04,26,14,39,12.10
2011,04,26,14,40,12.10
2011,04,26,14,41,12.10
2011,04,26,14,42,12.10
2011,04,26,14,43,12.10
2011,04,26,14,44,12.10
2011,04,26,14,45,12.20
2011,04,26,14,46,12.30
2011,04,26,14,47,12.30
2011,04,26,14,48,12.30
2011,04,26,14,49,12.30
2011,04,26,14,50,12.30
2011,04,26,14,51,12.30
2011,04,26,14,52,12.30
2011,04,26,14,53,12.20
2011,04,26,14,54,12.20
2011,04,26,14,55,12.30
2011,04,26,14,56,12.30
2011,04,26,14,57,12.20
2011,04,26,14,58,12.10
2011,04,26,14,59,12.00
2011,04,26,15,00,12.00
2011,04,26,15,01,11.90
2011,04,26,15,02,12.00
2011,04,26,15,03,12.00
2011,04,26,15,04,11.90
2011,04,26,15,05,12.00
2011,04,26,15,06,11.90
2011,04,26,15,07,11.90
2011,04,26,15,08,12.00
2011,04,26,15,09,12.10
2011,04,26,15,10,12.20
2011,04,26,15,11,12.30
2011,04,26,15,12,12.20
2011,04,26,15,13,12.20
2011,04,26,15,14,12.20
2011,04,26,15,15,12.20
2011,04,26,15,16,12.20
2011,04,26,15,17,12.20
2011,04,26,15,18,12.30
2011,04,26,15,19,12.30
2011,04,26,15,20,12.30
2011,04,26,15,21,12.30
2011,04,26,15,22,12.30
2011,04,26,15,23,12.20
2011,04,26,15,24,12.20
2011,04,26,15,25,12.10
2011,04,26,15,26,12.00
2011,04,26,15,27,11.90
2011,04,26,15,28,11.90
2011,04,26,15,29,11.80
2011,04,26,15,30,11.80
2011,04,26,15,31,11.80
2011,04,26,15,32,11.70
2011,04,26,15,33,11.60
2011,04,26,15,34,11.60
2011,04,26,15,35,11.70
2011,04,26,15,36,11.60
2011,04,26,15,37,11.60
2011,04,26,15,38,11.60
2011,04,26,15,39,11.60
2011,04,26,15,40,11.70
2011,04,26,15,41,11.70
2011,04,26,15,42,11.70
2011,04,26,15,43,11.60
2011,04,26,15,44,11.60
2011,04,26,15,45,11.50
2011,04,26,15,46,11.50
2011,04,26,15,47,11.50
2011,04,26,15,48,11.60
2011,04,26,15,49,11.60
2011,04,26,15,50,11.60
2011,04,26,15,51,11.70
2011,04,26,15,52,11.80
2011,04,26,15,53,12.00
2011,04,26,15,54,12.20
2011,04,26,15,55,12.30
2011,04,26,15,56,12.40
2011,04,26,15,57,12.40
2011,04,26,15,58,12.30
2011,04,26,15,59,12.10
2011,04,26,16,00,12.10
2011,04,26,16,01,12.10
2011,04,26,16,02,12.10
2011,04,26,16,03,12.10
2011,04,26,16,04,12.00
2011,04,26,16,05,11.90
2011,04,26,16,06,11.90
2011,04,26,16,07,11.90
2011,04,26,16,08,11.90
2011,04,26,16,09,11.90
2011,04,26,16,10,11.80
2011,04,26,16,11,11.80
2011,04,26,16,12,11.80
2011,04,26,16,13,11.90
2011,04,26,16,14,12.10
2011,04,26,16,15,12.10
2011,04,26,16,16,12.10
2011,04,26,16,17,12.00
2011,04,26,16,18,11.90
2011,04,26,16,19,11.70
2011,04,26,16,20,11.50
2011,04,26,16,21,11.50
2011,04,26,16,22,11.40
2011,04,26,16,23,11.40
2011,04,26,16,24,11.40
2011,04,26,16,25,11.40
2011,04,26,16,26,11.40
2011,04,26,16,27,11.40
2011,04,26,16,28,11.40
2011,04,26,16,29,11.50
2011,04,26,16,30,11.60
2011,04,26,16,31,11.60
2011,04,26,16,32,11.60
2011,04,26,16,33,11.60
2011,04,26,16,34,11.50
2011,04,26,16,35,11.60
2011,04,26,16,36,11.60
2011,04,26,16,37,11.60
2011,04,26,16,38,11.60
2011,04,26,16,39,11.60
2011,04,26,16,40,11.60
2011,04,26,16,41,11.60
2011,04,26,16,42,11.70
2011,04,26,16,43,11.70
2011,04,26,16,44,11.60
2011,04,26,16,45,11.60
2011,04,26,16,46,11.50
2011,04,26,16,47,11.40
2011,04,26,16,48,11.40
2011,04,26,16,49,11.40
2011,04,26,16,50,11.40
2011,04,26,16,51,11.40
2011,04,26,16,52,11.30
2011,04,26,16,53,11.30
2011,04,26,16,54,11.30
2011,04,26,16,55,11.20
2011,04,26,16,56,11.20
2011,04,26,16,57,11.20
2011,04,26,16,58,11.20
2011,04,26,16,59,11.20
2011,04,26,17,00,11.20
2011,04,26,17,01,11.20
2011,04,26,17,02,11.30
2011,04,26,17,03,11.30
2011,04,26,17,04,11.40
2011,04,26,17,05,11.50
2011,04,26,17,06,11.50
2011,04,26,17,07,11.60
2011,04,26,17,08,11.70
2011,04,26,17,09,11.70
2011,04,26,17,10,11.70
2011,04,26,17,11,11.70
2011,04,26,17,12,11.70
2011,04,26,17,13,11.60
2011,04,26,17,14,11.60
2011,04,26,17,15,11.60
2011,04,26,17,16,11.50
2011,04,26,17,17,11.50
2011,04,26,17,18,11.60
2011,04,26,17,19,11.70
2011,04,26,17,20,11.70
2011,04,26,17,21,11.80
2011,04,26,17,22,11.80
2011,04,26,17,23,11.90
2011,04,26,17,24,11.90
2011,04,26,17,25,11.90
2011,04,26,17,26,11.90
2011,04,26,17,27,11.80
2011,04,26,17,28,11.80
2011,04,26,17,29,11.90
2011,04,26,17,30,11.90
2011,04,26,17,31,11.90
2011,04,26,17,32,11.90
2011,04,26,17,33,11.90
2011,04,26,17,34,11.90
2011,04,26,17,35,11.80
2011,04,26,17,36,11.70
2011,04,26,17,37,11.70
2011,04,26,17,38,11.60
2011,04,26,17,39,11.70
2011,04,26,17,40,11.60
2011,04,26,17,41,11.60
2011,04,26,17,42,11.60
2011,04,26,17,43,11.50
2011,04,26,17,44,11.50
2011,04,26,17,45,11.50
2011,04,26,17,46,11.50
2011,04,26,17,47,11.50
2011,04,26,17,48,11.50
2011,04,26,17,49,11.40
2011,04,26,17,50,11.40
2011,04,26,17,51,11.40
2011,04,26,17,52,11.30
2011,04,26,17,53,11.40
2011,04,26,17,54,11.40
2011,04,26,17,55,11.40
2011,04,26,17,56,11.40
2011,04,26,17,57,11.40
2011,04,26,17,58,11.30
2011,04,26,17,59,11.30
2011,04,26,18,00,11.20
2011,04,26,18,01,11.20
2011,04,26,18,02,11.20
2011,04,26,18,03,11.10
2011,04,26,18,04,11.10
2011,04,26,18,05,11.10
2011,04,26,18,06,11.00
2011,04,26,18,07,10.90
2011,04,26,18,08,10.90
2011,04,26,18,09,10.80
2011,04,26,18,10,10.80
2011,04,26,18,11,10.80
2011,04,26,18,12,10.80
2011,04,26,18,13,10.80
2011,04,26,18,14,10.80
2011,04,26,18,15,10.80
2011,04,26,18,16,10.80
2011,04,26,18,17,10.80
2011,04,26,18,18,10.70
2011,04,26,18,19,10.70
2011,04,26,18,20,10.70
2011,04,26,18,21,10.70
2011,04,26,18,22,10.70
2011,04,26,18,23,10.70
2011,04,26,18,24,10.80
2011,04,26,18,25,10.80
2011,04,26,18,26,10.80
2011,04,26,18,27,10.90
2011,04,26,18,28,10.90
2011,04,26,18,29,10.90
2011,04,26,18,30,10.90
2011,04,26,18,31,10.90
2011,04,26,18,32,10.90
2011,04,26,18,33,10.90
2011,04,26,18,34,10.80
2011,04,26,18,35,10.80
2011,04,26,18,36,10.80
2011,04,26,18,37,10.80
2011,04,26,18,38,10.80
2011,04,26,18,39,10.90
2011,04,26,18,40,10.90
2011,04,26,18,41,10.90
2011,04,26,18,42,10.90
2011,04,26,18,43,10.80
2011,04,26,18,44,10.80
2011,04,26,18,45,10.80
2011,04,26,18,46,10.80
2011,04,26,18,47,10.70
2011,04,26,18,48,10.70
2011,04,26,18,49,10.70
2011,04,26,18,50,10.70
2011,04,26,18,51,10.70
2011,04,26,18,52,10.70
2011,04,26,18,53,10.80
2011,04,26,18,54,10.80
2011,04,26,18,55,10.80
2011,04,26,18,56,10.70
2011,04,26,18,57,10.70
2011,04,26,18,58,10.70
2011,04,26,18,59,10.60
2011,04,26,19,00,10.60
2011,04,26,19,01,10.60
2011,04,26,19,02,10.70
2011,04,26,19,03,10.70
2011,04,26,19,04,10.70
2011,04,26,19,05,10.60
2011,04,26,19,06,10.60
2011,04,26,19,07,10.50
2011,04,26,19,08,10.50
2011,04,26,19,09,10.40
2011,04,26,19,10,10.40
2011,04,26,19,11,10.40
2011,04,26,19,12,10.40
2011,04,26,19,13,10.40
2011,04,26,19,14,10.50
2011,04,26,19,15,10.50
2011,04,26,19,16,10.40
2011,04,26,19,17,10.40
2011,04,26,19,18,10.40
2011,04,26,19,19,10.40
2011,04,26,19,20,10.40
2011,04,26,19,21,10.30
2011,04,26,19,22,10.30
2011,04,26,19,23,10.30
2011,04,26,19,24,10.30
2011,04,26,19,25,10.30
2011,04,26,19,26,10.30
2011,04,26,19,27,10.30
2011,04,26,19,28,10.30
2011,04,26,19,29,10.30
2011,04,26,19,30,10.30
2011,04,26,19,31,10.30
2011,04,26,19,32,10.40
2011,04,26,19,33,10.40
2011,04,26,19,34,10.40
2011,04,26,19,35,10.40
2011,04,26,19,36,10.40
2011,04,26,19,37,10.50
2011,04,26,19,38,10.50
2011,04,26,19,39,10.50
2011,04,26,19,40,10.50
2011,04,26,19,41,10.50
2011,04,26,19,42,10.50
2011,04,26,19,43,10.40
2011,04,26,19,44,10.40
2011,04,26,19,45,10.30
2011,04,26,19,46,10.30
2011,04,26,19,47,10.30
2011,04,26,19,48,10.20
2011,04,26,19,49,10.20
2011,04,26,19,50,10.20
2011,04,26,19,51,10.20
2011,04,26,19,52,10.20
2011,04,26,19,53,10.20
2011,04,26,19,54,10.20
2011,04,26,19,55,10.20
2011,04,26,19,56,10.20
2011,04,26,19,57,10.20
2011,04,26,19,58,10.20
2011,04,26,19,59,10.30
2011,04,26,20,00,10.30
2011,04,26,20,01,10.30
2011,04,26,20,02,10.30
2011,04,26,20,03,10.30
2011,04,26,20,04,10.30
2011,04,26,20,05,10.30
2011,04,26,20,06,10.30
2011,04,26,20,07,10.30
2011,04,26,20,08,10.30
2011,04,26,20,09,10.20
2011,04,26,20,10,10.20
2011,04,26,20,11,10.20
2011,04,26,20,12,10.10
2011,04,26,20,13,10.10
2011,04,26,20,14,10.10
2011,04,26,20,15,10.10
2011,04,26,20,16,10.10
2011,04,26,20,17,10.10
2011,04,26,20,18,10.10
2011,04,26,20,19,10.10
2011,04,26,20,20,10.10
2011,04,26,20,21,10.10
2011,04,26,20,22,10.10
2011,04,26,20,23,10.10
2011,04,26,20,24,10.10
2011,04,26,20,25,10.10
